This demonstration page uses our WeatherBlox Daily Observations layout. Learn more.

Left ArrowRight Arrow

39.01783, -85.05884

Hourly Observations for December 4, 2020

Temp ( °F °C ) Dew Point ( °F °C ) Humidity (%) Winds ( mph kmh ) Pressure ( in mb ) Visibility ( mi km ) Precip ( " mm )
12:52 am 00:52 Cloudy 38 3.3 31 -0.6 76 76 S 5 7 30.11 1020 10 16 N/A
1:52 am 01:52 Cloudy 39 3.9 30 -1.1 70 70 SSW 8 13 30.09 1019 10 16 N/A
2:52 am 02:52 Cloudy 39 3.9 30 -1.1 70 70 NW 5 7 30.09 1019 10 16 N/A
3:52 am 03:52 Cloudy 38 3.3 31 -0.6 76 76 S 8 13 30.06 1018 10 16 N/A
4:15 am 04:15 Cloudy 39 3.9 30 -1.1 70 70 S 8 13 30.09 1019 10 16 N/A
4:52 am 04:52 Cloudy 39 3.9 30 -1.1 70 70 S 7 11 30.06 1018 10 16 N/A
5:11 am 05:11 Cloudy 40 4.4 28 -2.2 63 63 SSW 7 11 30.08 1019 10 16 N/A
5:52 am 05:52 Cloudy 40 4.4 29 -1.7 65 65 S 7 11 30.04 1017 10 16 N/A
6:52 am 06:52 Cloudy 40 4.4 30 -1.1 68 68 SSW 6 9 30.04 1017 10 16 N/A
7:46 am 07:46 Mostly Cloudy 39 4 30 -1 70 70 S 8 13 30.06 1018 10 16 N/A
7:52 am 07:52 Mostly Cloudy 40 4.4 31 -0.6 70 70 S 8 13 30.04 1017 10 16 N/A
8:52 am 08:52 Cloudy 41 5 33 0.6 73 73 S 8 13 30.04 1017 10 16 N/A
9:52 am 09:52 Cloudy 43 6.1 36 2.2 76 76 SW 8 13 30.04 1017 10 16 N/A
10:52 am 10:52 Cloudy 44 6.7 37 2.8 76 76 SW 6 9 30.03 1017 10 16 N/A
11:08 am 11:08 Cloudy 44 6.7 37 2.8 76 76 SSW 3 6 30.03 1017 10 16 N/A
11:48 am 11:48 Cloudy 45 7 37 3 76 76 W 6 9 30.01 1016 10 16 N/A
11:52 am 11:52 Cloudy 45 7.2 37 2.8 74 74 WSW 6 9 29.99 1016 10 16 N/A
12:52 pm 12:52 Cloudy 45 7.2 38 3.3 77 77 W 8 13 29.95 1014 10 16 N/A
1:52 pm 13:52 Cloudy 44 6.7 36 2.2 73 73 WNW 8 13 29.94 1014 10 16 N/A
2:52 pm 14:52 Cloudy 44 6.7 37 2.8 76 76 W 9 15 29.92 1013 10 16 N/A
3:52 pm 15:52 Cloudy 44 6.7 37 2.8 76 76 SW 5 7 29.93 1013 10 16 N/A
4:47 pm 16:47 Cloudy 45 7 37 3 76 76 SW 5 7 29.94 1014 10 16 N/A
4:52 pm 16:52 Cloudy 44 6.7 37 2.8 76 76 SW 6 9 29.92 1013 10 16 N/A
5:15 pm 17:15 Partly Cloudy 42 5.6 37 2.8 82 82 SSW 6 9 29.95 1014 10 16 N/A
5:52 pm 17:52 Mostly Clear 41 5 36 2.2 82 82 WSW 3 6 29.92 1013 10 16 N/A
6:52 pm 18:52 Mostly Clear 40 4.4 35 1.7 83 83 SW 7 11 29.94 1014 10 16 N/A
7:52 pm 19:52 Mostly Clear 38 3.3 35 1.7 89 89 WSW 6 9 29.96 1015 9 14 N/A
8:52 pm 20:52 Cloudy 40 4.4 34 1.1 79 79 W 7 11 29.97 1015 10 16 N/A
9:52 pm 21:52 Mostly Cloudy 39 3.9 32 undefined 76 76 WSW 7 11 29.99 1016 10 16 N/A
10:52 pm 22:52 Mostly Clear 37 2.8 31 -0.6 79 79 WSW 5 7 29.99 1016 10 16 N/A
11:52 pm 23:52 Mostly Cloudy 37 2.8 31 -0.6 79 79 SW 7 11 29.99 1016 10 16 N/A

Powered by AerisWeather